Regional Weather Roundup
Issued by NWS

Home | Current Version | Previous Version | Graphics & Text | Print | Product List | Glossary Off
Versions: 1 2 3 4 5 6 7 8 9 10 11 12 13 14 15 16 17 18 19 20 21 22 23 24 25 26 27 28 29 30 31 32 33 34 35 36 37 38 39 40 41 42 43 44 45 46 47 48 49 50

000
ASUS45 KCYS 272110
RWRWY

WYOMING REGIONAL WEATHER ROUNDUP
NATIONAL WEATHER SERVICE CHEYENNE WY
200 PM MST MON FEB 27 2017

NOTE:  "FAIR" INDICATES FEW OR NO CLOUDS BELOW 12,000 FEET
WITH NO SIGNIFICANT WEATHER AND/OR OBSTRUCTIONS TO VISIBILITY.

WYZ001-272200-
YELLOWSTONE NATIONAL PARK

CITY           SKY/WX    TMP DP  RH WIND       PRES   REMARKS
LK YELLOWSTONE   N/A     16  12  84 W8        29.48S WCI   5
W YELLOWSTONE  NOT AVBL

$$
WYZ002>013-054>058-071-098>099-272200-
NORTHERN WYOMING

CITY           SKY/WX    TMP DP  RH WIND       PRES   REMARKS
JACKSON        LGT SNOW  21  19  93 S17       29.51F WCI   7
CODY           FAIR      33  13  43 SE15      29.50F WCI  23
GREYBULL       FAIR      36  15  42 SE7       29.54F WCI  30
WORLAND        FAIR      35  13  40 S6        29.53F WCI  30
SHERIDAN       FAIR      31  17  56 SE7       29.57F WCI  24
BUFFALO        FAIR      31  11  43 CALM      29.55F
GILLETTE       FAIR      38   8  29 NE8       29.54F WCI  32
HULETT         FAIR      37   9  30 CALM      29.56F
NEWCASTLE      FAIR      32  27  80 E5        29.57F WCI  27

$$
WYZ014>020-022>026-101>103-272200-
CENTRAL WYOMING

CITY           SKY/WX    TMP DP  RH WIND       PRES   REMARKS
BIG PINEY      CLOUDY    16  14  92 S13       29.56F WCI   2
PINEDALE       LGT SNOW  18  12  79 SE10      29.56F VSB 3/4 WCI   6
DUBOIS         MOCLDY    27   9  46 W10       29.45F WCI  17
LANDER         FAIR      27  13  55 E6        29.52F WCI  20
RIVERTON       FAIR      26  11  52 E5        29.53F WCI  20
CASPER         CLOUDY    32  22  66 SW10      29.53S WCI  24
DOUGLAS        PTSUNNY   28  24  85 SE6       29.55F WCI  22

$$
WYZ021-027>030-104>119-272200-
SOUTHERN WYOMING

CITY           SKY/WX    TMP DP  RH WIND       PRES   REMARKS
EVANSTON       LGT SNOW  22  14  71 W23       29.60S WCI   6
KEMMERER         N/A     25  18  74 SW23      29.57F HAZE    WCI  10
FORT BRIDGER   LGT SNOW  25  24  94 W13       29.63R WCI  14
ROCK SPRINGS   CLOUDY    24  18  77 SW15      29.58F WCI  11
DIXON          SNOW      26  21  82 NW7       29.63S VSB 1/2 WCI  18
RAWLINS        LGT SNOW  25  18  74 W12       29.56R WCI  14
SARATOGA       LGT SNOW  25  25 100 W5        29.59R VSB 3/4 WCI  19
LARAMIE        FAIR      35  20  54 SW28G37   29.49F WCI  22
CHEYENNE       FAIR      39  18  42 S13       29.53F WCI  31
TORRINGTON     CLOUDY    33  19  56 MISG      29.54F
PINE BLUFFS    FAIR      48  14  25 S14G25    29.54F

$$



USA.gov is the U.S. government's official web portal to all federal, state and local government web resources and services.